Weather reports worldwide

Advertisment
Tyndrum, United Kingdom (99020): temperature & dewpoint: 19.09.2018 22:00:00 - 25.09.2018 22:00:00 (BST)Tyndrum, United Kingdom (99020): precipitation: 19.09.2018 22:00:00 - 25.09.2018 22:00:00 (BST)
Date & Time tt [°C] td [°C] rr [mm]
25.09.2018 22:00:00 12,5 11,0 0,6
25.09.2018 21:00:00 12,2 10,5 0,6
25.09.2018 20:00:00 11,7 10,4 1,2
25.09.2018 19:00:00 10,5 9,6 2,0
25.09.2018 18:00:00 10,3 9,4 2,2
25.09.2018 17:00:00 9,9 8,9 2,2
25.09.2018 16:00:00 9,7 8,5 1,6
25.09.2018 15:00:00 9,2 8,0 4,4
25.09.2018 14:00:00 8,9 7,4 2,2
25.09.2018 13:00:00 9,7 6,3 0,4
25.09.2018 12:00:00 10,6 4,8 0,0
25.09.2018 11:00:00 10,0 4,4 0,0
25.09.2018 10:00:00 10,0 5,3 0,0
25.09.2018 09:00:00 9,1 5,3 0,0
25.09.2018 08:00:00 6,4 4,5 0,0
25.09.2018 07:00:00 8,0 5,3 0,0
25.09.2018 06:00:00 8,2 5,8 0,0
25.09.2018 05:00:00 8,9 6,1 0,0
25.09.2018 04:00:00 9,5 6,0 0,0
25.09.2018 03:00:00 9,0 6,4 0,0
25.09.2018 02:00:00 9,1 6,6 0,0
25.09.2018 01:00:00 7,8 6,6 0,0
25.09.2018 00:00:00 7,9 7,1 0,0
24.09.2018 23:00:00 8,3 7,1 0,0
24.09.2018 22:00:00 8,2 7,0 0,0
24.09.2018 21:00:00 8,6 7,1 0,0
24.09.2018 20:00:00 8,9 6,8 0,0
24.09.2018 19:00:00 9,3 6,8 0,2
24.09.2018 18:00:00 10,4 6,7 0,0
24.09.2018 17:00:00 11,2 6,2 0,0
24.09.2018 16:00:00 11,5 6,0 0,0
24.09.2018 15:00:00 11,4 5,6 0,0
24.09.2018 14:00:00 12,4 6,8 0,0
24.09.2018 13:00:00 12,4 5,2 0,0
24.09.2018 12:00:00 8,8 6,4 1,2
24.09.2018 11:00:00 8,8 6,1 0,2
24.09.2018 10:00:00 9,1 6,5 0,0
24.09.2018 09:00:00 7,4 7,0 0,0
24.09.2018 08:00:00 5,3 4,9 0,0
24.09.2018 07:00:00 4,8 4,4 0,2
24.09.2018 06:00:00 4,5 4,1 0,0
24.09.2018 05:00:00 3,7 3,3 0,2
24.09.2018 04:00:00 3,6 3,1 0,0
24.09.2018 03:00:00 3,0 2,5 0,0
24.09.2018 02:00:00 1,8 1,3 0,0
24.09.2018 01:00:00 0,5 -0,2 0,0
24.09.2018 00:00:00 0,8 -0,2 0,0
23.09.2018 23:00:00 2,3 0,9 0,0
23.09.2018 22:00:00 4,3 1,7 0,0
23.09.2018 21:00:00 5,8 3,7 0,0
23.09.2018 20:00:00 7,7 3,1 0,0
23.09.2018 19:00:00 8,2 3,9 0,0
23.09.2018 18:00:00 9,3 4,0 0,0
23.09.2018 17:00:00 10,9 4,0 0,0
23.09.2018 16:00:00 11,7 3,7 0,0
23.09.2018 15:00:00 12,1 5,2 0,0
23.09.2018 14:00:00 11,7 4,3 0,0
23.09.2018 13:00:00 12,2 4,9 0,0
23.09.2018 12:00:00 9,5 4,8 0,0
23.09.2018 11:00:00 8,4 6,3 0,2
23.09.2018 10:00:00 4,3 4,0 0,0
23.09.2018 09:00:00 0,8 0,5 0,0
23.09.2018 08:00:00 -0,9 -1,3 0,0
23.09.2018 07:00:00 -0,7 -1,0 0,0
23.09.2018 06:00:00 -1,0 -1,5 0,0
23.09.2018 05:00:00 -0,7 -1,1 0,0
23.09.2018 04:00:00 -0,2 -0,6 0,0
23.09.2018 03:00:00 0,1 -0,3 0,0
23.09.2018 02:00:00 0,5 0,0 0,0
23.09.2018 01:00:00 0,7 0,1 0,0
23.09.2018 00:00:00 1,7 1,1 0,0
22.09.2018 23:00:00 2,9 2,4 0,0
22.09.2018 22:00:00 2,8 2,2 0,0
22.09.2018 21:00:00 3,4 2,5 0,0
22.09.2018 20:00:00 5,2 4,1 0,0
22.09.2018 19:00:00 7,6 5,5 0,0
22.09.2018 18:00:00 8,4 5,4 0,2
22.09.2018 17:00:00 10,7 5,3 0,2
22.09.2018 16:00:00 11,9 4,3 0,0
22.09.2018 15:00:00 10,9 5,4 0,0
22.09.2018 14:00:00 11,1 5,1 0,2
22.09.2018 13:00:00 11,5 4,5 0,0
22.09.2018 12:00:00 10,3 4,0 0,0
22.09.2018 11:00:00 10,4 5,5 0,2
22.09.2018 10:00:00 7,6 5,0 0,0
22.09.2018 09:00:00 7,5 4,5 0,0
22.09.2018 08:00:00 7,1 4,4 0,0
22.09.2018 07:00:00 6,3 3,6 0,0
22.09.2018 06:00:00 6,9 4,6 0,2
22.09.2018 05:00:00 6,7 5,0 0,0
22.09.2018 04:00:00 7,0 5,2 0,2
22.09.2018 03:00:00 6,9 5,0 0,2
22.09.2018 02:00:00 6,9 5,0 0,2
22.09.2018 01:00:00 7,0 5,1 0,4
22.09.2018 00:00:00 7,3 4,4 0,0
21.09.2018 23:00:00 6,9 4,2 0,2
21.09.2018 22:00:00 7,4 5,0 0,0
21.09.2018 21:00:00 7,5 5,7 0,6
21.09.2018 20:00:00 7,8 6,1 0,4
21.09.2018 19:00:00 9,2 5,0 0,0
21.09.2018 18:00:00 9,4 3,9 0,4
21.09.2018 17:00:00 11,5 5,8 0,0
21.09.2018 16:00:00 11,7 5,4 0,0
21.09.2018 15:00:00 11,5 5,0 0,0
21.09.2018 14:00:00 11,1 6,6 0,0
21.09.2018 13:00:00 10,0 7,6 0,2
21.09.2018 12:00:00 11,5 6,4 0,0
21.09.2018 11:00:00 9,4 5,7 0,0
21.09.2018 10:00:00 8,2 6,4 0,0
21.09.2018 09:00:00 6,9 6,2 0,0
21.09.2018 08:00:00 5,7 4,8 0,0
21.09.2018 07:00:00 5,7 4,9 0,2
21.09.2018 06:00:00 6,2 5,5 0,2
21.09.2018 05:00:00 6,0 5,3 0,0
21.09.2018 04:00:00 5,6 4,8 0,0
21.09.2018 03:00:00 5,3 4,6 0,0
21.09.2018 02:00:00 5,5 4,9 0,0
21.09.2018 01:00:00 5,7 4,9 0,0
21.09.2018 00:00:00 6,1 5,3 0,4
20.09.2018 23:00:00 6,7 6,2 0,4
20.09.2018 22:00:00 6,8 6,2 0,0
20.09.2018 21:00:00 6,8 6,1 0,0
20.09.2018 20:00:00 7,1 6,1 0,0
20.09.2018 19:00:00 8,0 6,8 1,2
20.09.2018 18:00:00 8,8 6,8 0,2
20.09.2018 17:00:00 11,0 6,2 0,0
20.09.2018 16:00:00 11,0 6,3 0,0
20.09.2018 15:00:00 11,2 5,6 0,0
20.09.2018 14:00:00 10,3 7,5 0,8
20.09.2018 13:00:00 10,8 5,9 0,0
20.09.2018 12:00:00 11,2 5,6 0,0
20.09.2018 11:00:00 9,8 4,5 1,0
20.09.2018 10:00:00 9,1 6,3 1,6
20.09.2018 09:00:00 9,3 6,1 0,8
20.09.2018 08:00:00 9,1 5,5 2,6
20.09.2018 07:00:00 8,8 5,4 0,0
20.09.2018 06:00:00 8,9 5,6 1,4
20.09.2018 05:00:00 8,3 5,5 1,8
20.09.2018 04:00:00 8,4 5,6 2,8
20.09.2018 03:00:00 8,4 6,3 1,0
20.09.2018 02:00:00 8,7 5,4 0,6
20.09.2018 01:00:00 6,7 5,0 3,0
20.09.2018 00:00:00 7,6 4,3 2,0
19.09.2018 23:00:00 8,5 5,7 1,4
19.09.2018 22:00:00 8,4 5,7 2,8

tt = temperature
td = dewpoint
rr = precipitation

Next stations